DW2849 Weather Reports


Display with metric or nautical units.
time (UTC)temp
F
wind
direction
speed
MPH
gust
MPH
rain 1hr
in
rain 24hr
in
rain mn
in
humidity
%
barometer
mb
20260503230011 59 236 4.0 8.0 0.00 0.00 0.00 73 1011.9
20260503225312 58 218 3.0 8.0 0.00 0.00 0.00 75 1011.9
20260503224612 60 180 3.0 7.0 0.00 0.00 0.00 73 1011.9
20260503223720 60 235 3.0 6.0 0.00 0.00 0.00 72 1011.9
20260503223020 60 240 4.0 5.0 0.00 0.00 0.00 72 1011.9
20260503222320 58 253 3.0 6.0 0.00 0.00 0.00 75 1012.0
20260503221429 58 152 2.0 4.0 0.00 0.00 0.00 76 1012.0
20260503220729 60 180 2.0 5.0 0.00 0.00 0.00 73 1012.1
20260503220033 61 160 3.0 6.0 0.00 0.00 0.00 71 1012.1
20260503215329 60 288 2.0 6.0 0.00 0.00 0.00 74 1012.1
20260503214438 61 212 2.0 5.0 0.00 0.00 0.00 72 1012.1
20260503213737 60 231 3.0 7.0 0.00 0.00 0.00 73 1011.9
20260503213038 58 225 3.0 8.0 0.00 0.00 0.00 75 1012.0
20260503212146 61 262 5.0 8.0 0.00 0.00 0.00 72 1012.0
20260503211446 60 208 4.0 9.0 0.00 0.00 0.00 73 1012.0
20260503210746 58 278 4.0 9.0 0.00 0.00 0.00 75 1012.0
20260503210046 57 217 3.0 5.0 0.00 0.00 0.00 75 1011.9
20260503205347 57 174 2.0 4.0 0.00 0.00 0.00 76 1011.9
20260503204646 57 276 2.0 4.0 0.00 0.00 0.00 77 1011.9
20260503203946 56 184 2.0 7.0 0.00 0.00 0.00 76 1011.9
20260503203246 57 278 4.0 6.0 0.00 0.00 0.00 76 1012.0
20260503202355 58 245 3.0 4.0 0.00 0.00 0.00 74 1012.1
20260503201656 57 163 2.0 4.0 0.00 0.00 0.00 76 1012.0
20260503200955 57 225 2.0 6.0 0.00 0.00 0.00 76 1012.1
20260503200255 56 259 3.0 6.0 0.00 0.00 0.00 76 1012.1
20260503195403 56 217 3.0 4.0 0.00 0.00 0.00 76 1012.1
20260503194703 56 200 2.0 4.0 0.00 0.00 0.00 75 1012.2
20260503194007 56 262 2.0 5.0 0.00 0.00 0.00 76 1012.2
20260503193304 55 160 2.0 4.0 0.00 0.00 0.00 77 1012.4
20260503192603 55 225 3.0 5.0 0.00 0.00 0.00 78 1012.3
20260503191904 55 264 2.0 5.0 0.00 0.00 0.00 78 1012.3
20260503191203 55 22 1.0 5.0 0.00 0.00 0.00 78 1012.3
20260503190313 55 264 3.0 6.0 0.00 0.00 0.00 78 1012.1
20260503185421 56 214 3.0 6.0 0.00 0.00 0.00 77 1012.2
20260503184721 56 264 2.0 4.0 0.00 0.00 0.00 75 1012.1
20260503184021 56 222 3.0 5.0 0.00 0.00 0.00 76 1012.1
20260503183321 55 183 3.0 5.0 0.00 0.00 0.00 77 1012.1
20260503182621 55 253 1.0 5.0 0.00 0.00 0.00 77 1012.1
20260503181921 55 222 3.0 5.0 0.00 0.00 0.00 78 1012.1
20260503181221 54 191 3.0 5.0 0.00 0.00 0.00 78 1012.1
20260503180330 54 228 3.0 4.0 0.00 0.00 0.00 79 1012.2
20260503175630 53 267 2.0 3.0 0.00 0.00 0.00 80 1012.2
20260503174933 53 211 2.0 4.0 0.00 0.00 0.00 80 1012.2
20260503174230 53 253 2.0 4.0 0.00 0.00 0.00 79 1012.1
20260503173530 53 248 1.0 4.0 0.00 0.00 0.00 79 1012.0
20260503172830 53 231 1.0 4.0 0.00 0.00 0.00 80 1012.0
20260503172130 52 352 2.0 3.0 0.00 0.00 0.00 82 1011.8
20260503171430 52 239 1.0 3.0 0.00 0.00 0.00 82 1011.9
20260503170537 51 154 1.0 4.0 0.00 0.00 0.00 82 1011.9
20260503150612 49 225 0.0 1.0 0.00 0.00 0.00 86 1011.2
20260503140120 49 215 1.0 2.0 0.00 0.00 0.00 87 1010.3
20260503131029 49 217 1.0 2.0 0.00 0.00 0.00 87 1009.7
20260503130329 49 230 1.0 2.0 0.00 0.00 0.00 87 1009.7
20260503110404 49 120 1.0 2.0 0.00 0.00 0.00 86 1009.6
20260503081348 49 225 0.0 2.0 0.00 0.00 0.00 86 1010.5
20260503080648 50 304 0.0 2.0 0.00 0.00 0.00 86 1010.4
20260503072258 50 270 1.0 3.0 0.00 0.00 0.00 86 1010.5
20260503071556 50 287 1.0 3.0 0.00 0.00 0.00 86 1010.6
20260503070856 50 264 2.0 3.0 0.00 0.00 0.00 86 1010.5
20260503070156 50 225 1.0 2.0 0.00 0.00 0.00 86 1010.6
20260503060214 50 225 1.0 4.0 0.00 0.00 0.00 85 1010.9
20260503054814 50 233 1.0 2.0 0.00 0.00 0.00 85 1010.9
20260503054114 50 267 1.0 3.0 0.00 0.00 0.00 85 1011.0
20260503053223 50 270 1.0 4.0 0.00 0.00 0.00 85 1011.0
20260503052529 50 231 2.0 4.0 0.00 0.00 0.00 85 1011.0
20260503051822 50 318 1.0 4.0 0.00 0.00 0.00 85 1011.1
20260503051122 50 244 1.0 4.0 0.00 0.00 0.00 85 1011.1
20260503050422 50 273 1.0 3.0 0.00 0.00 0.00 85 1011.1
20260503045722 50 259 1.0 3.0 0.00 0.00 0.00 84 1011.1
20260503044829 50 6 1.0 2.0 0.00 0.00 0.00 85 1010.9
20260503044129 50 264 1.0 4.0 0.00 0.00 0.00 84 1011.0
20260503043429 50 262 2.0 6.0 0.00 0.00 0.00 84 1011.0
20260503042729 50 278 2.0 6.0 0.00 0.00 0.00 84 1010.9
20260503041837 50 270 2.0 3.0 0.00 0.00 0.00 84 1010.8
20260503041138 50 267 2.0 5.0 0.00 0.00 0.00 84 1010.8
20260503040438 50 257 2.0 5.0 0.00 0.00 0.00 84 1010.7
20260503035738 50 233 2.0 3.0 0.00 0.00 0.00 84 1010.6
20260503035038 50 228 2.0 3.0 0.00 0.00 0.00 84 1010.6
20260503034338 50 242 2.0 3.0 0.00 0.00 0.00 84 1010.5
20260503033446 50 217 2.0 3.0 0.00 0.00 0.00 84 1010.5
20260503032746 50 259 2.0 3.0 0.00 0.00 0.00 84 1010.3
20260503031855 50 250 1.0 3.0 0.00 0.00 0.00 84 1010.2
20260503031155 50 253 2.0 4.0 0.00 0.00 0.00 84 1010.2
20260503030455 50 222 2.0 6.0 0.00 0.00 0.00 84 1010.2
20260503025755 50 273 2.0 3.0 0.00 0.00 0.00 84 1010.2
20260503024904 50 262 1.0 3.0 0.00 0.00 0.00 84 1010.2
20260503024204 50 284 2.0 4.0 0.00 0.00 0.00 84 1010.3
20260503023504 50 253 2.0 4.0 0.00 0.00 0.00 84 1010.3
20260503022804 50 270 2.0 4.0 0.00 0.00 0.00 84 1010.3
20260503022104 50 270 2.0 4.0 0.00 0.00 0.00 83 1010.3
20260503021404 51 239 1.0 5.0 0.00 0.00 0.00 83 1010.3
20260503020704 50 205 3.0 5.0 0.00 0.00 0.00 83 1010.3
20260503020004 51 222 2.0 4.0 0.00 0.00 0.00 83 1010.3
20260503015305 51 267 2.0 6.0 0.00 0.00 0.00 83 1010.4
20260503014412 51 257 2.0 9.0 0.00 0.00 0.00 83 1010.5
20260503013712 51 284 3.0 9.0 0.00 0.00 0.00 82 1010.5
20260503013012 51 231 2.0 4.0 0.00 0.00 0.00 82 1010.5
20260503012312 51 233 3.0 5.0 0.00 0.00 0.00 82 1010.6
20260503011421 52 238 3.0 5.0 0.00 0.00 0.00 81 1010.6
20260503010021 52 259 2.0 4.0 0.00 0.00 0.00 82 1010.6
20260503005321 52 220 2.0 4.0 0.00 0.00 0.00 82 1010.6
20260503004621 52 220 2.0 4.0 0.00 0.00 0.00 82 1010.6
20260503003730 52 242 3.0 4.0 0.00 0.00 0.00 82 1010.6
20260503003030 52 220 3.0 4.0 0.00 0.00 0.00 81 1010.6
20260503002330 52 245 2.0 4.0 0.00 0.00 0.00 81 1010.6
20260503001630 52 208 2.0 5.0 0.00 0.00 0.00 82 1010.6
20260503000739 52 250 2.0 4.0 0.00 0.00 0.00 82 1010.7
20260503000040 52 194 3.0 4.0 0.00 0.00 0.00 82 1010.8
20260502235147 52 230 2.0 6.0 0.00 0.00 0.00 82 1010.9
20260502234447 52 270 3.0 5.0 0.00 0.00 0.00 82 1010.9
20260502233747 53 250 3.0 5.0 0.00 0.00 0.00 82 1011.0
20260502233047 53 225 3.0 5.0 0.00 0.00 0.00 81 1011.0
20260502232348 53 260 3.0 5.0 0.00 0.00 0.00 80 1011.1
20260502231647 54 200 2.0 6.0 0.00 0.00 0.00 80 1011.1
20260502230947 55 168 3.0 6.0 0.00 0.00 0.00 79 1011.2
20260502230248 55 210 3.0 5.0 0.00 0.00 0.00 79 1011.2